Raleigh-Durham Airport, NC

2:03 PM EST on December 16, 2017 (GMT -0500)
Raleigh-Durham International

Weather History for KRDU - April, 2013

Change the Weather History Date:

Sunday, April 28, 2013

  Actual Average Record
Temperature  
Mean Temperature 59 °F 63 °F  
Max Temperature 62 °F 76 °F 90 °F (1957)
Min Temperature 55 °F 51 °F 32 °F (1976)
Degree Days  
Heating Degree Days 6 4  
Month to date heating degree days 171 184  
Since 1 July heating degree days 3232 3180  
Cooling Degree Days 0 2  
Month to date cooling degree days 48 43  
Year to date cooling degree days 50 55  
Growing Degree Days 8 (Base 50)    
Moisture  
Dew Point 49 °F    
Average Humidity 72    
Maximum Humidity 93    
Minimum Humidity 51    
Precipitation  
Precipitation 0.97 in 0.09 in 2.02 in (1958)
Month to date precipitation 3.52 2.75  
Year to date precipitation 13.65 13.59  
Snow  
Snow 0.00 in 0.00 in 0.00 in (2002)
Month to date snowfall T 0.1  
Since 1 July snowfall 1.7 6.1  
Snow Depth 0.00 in    
Sea Level Pressure  
Sea Level Pressure 30.20 in    
Wind  
Wind Speed 5 mph (ESE)    
Max Wind Speed 12 mph    
Max Gust Speed 16 mph    
Visibility 8 miles    
Events Rain    
T = Trace of Precipitation, MM = Missing Value Source: NWS Daily Summary

Daily Weather History Graph

Daily Weather History Graph

Search for Another Location

Airport or City:

Trip Planner

Search our weather history database for the weather conditions in past years. The results will help you decide how hot, cold, wet, or windy it might be!

Date:

Astronomy

Apr. 28, 2013 Rise Set
Actual Time 6:25 AM EDT 7:59 PM EDT
Civil Twilight 5:58 AM EDT 8:27 PM EDT
Nautical Twilight 5:26 AM EDT 8:59 PM EDT
Astronomical Twilight 4:51 AM EDT 9:34 PM EDT
Moon 11:25 PM EDT (4/28) 8:44 AM EDT (4/28)
Length of Visible Light 14h 28m
Length of Day
13h 33m
Waning Gibbous, 89% of the Moon is Illuminated
Apr 28
Waning Gibbous
May 2
Last Quarter
May 9
New
May 18
First Quarter
May 25
Full

Hourly Weather History & Observations

Time (EDT) Temp. Dew Point Humidity Pressure Visibility Wind Dir Wind Speed Gust Speed Precip Events Conditions
12:51 AM 60.1 °F 50.0 °F 69% 30.27 in 10.0 mi SW 9.2 mph - N/A   Overcast
1:51 AM 59.0 °F 50.0 °F 72% 30.26 in 10.0 mi South 3.5 mph - N/A   Overcast
2:51 AM 59.0 °F 48.9 °F 69% 30.25 in 10.0 mi SSE 3.5 mph - N/A   Overcast
3:51 AM 59.0 °F 46.0 °F 62% 30.24 in 10.0 mi SE 3.5 mph - N/A   Overcast
4:51 AM 57.9 °F 41.0 °F 53% 30.22 in 10.0 mi SE 6.9 mph - N/A   Overcast
5:51 AM 57.0 °F 39.0 °F 51% 30.24 in 10.0 mi SSE 5.8 mph - N/A   Overcast
6:51 AM 57.0 °F 41.0 °F 55% 30.25 in 10.0 mi Calm Calm - N/A   Overcast
7:51 AM 55.9 °F 43.0 °F 62% 30.26 in 10.0 mi ESE 4.6 mph - N/A   Overcast
8:51 AM 55.9 °F 44.1 °F 64% 30.26 in 10.0 mi South 3.5 mph - N/A   Overcast
9:51 AM 57.9 °F 44.1 °F 60% 30.24 in 10.0 mi ESE 6.9 mph - N/A   Overcast
10:51 AM 60.1 °F 43.0 °F 53% 30.25 in 10.0 mi SE 8.1 mph - N/A   Overcast
11:51 AM 60.1 °F 45.0 °F 57% 30.25 in 10.0 mi ESE 8.1 mph - 0.00 in   Overcast
12:51 PM 60.1 °F 46.9 °F 62% 30.23 in 10.0 mi East 6.9 mph - N/A   Overcast
1:51 PM 60.1 °F 51.1 °F 72% 30.21 in 10.0 mi ESE 6.9 mph - 0.01 in   Overcast
2:51 PM 61.0 °F 48.0 °F 62% 30.19 in 10.0 mi East 8.1 mph - N/A   Overcast
3:51 PM 62.1 °F 48.9 °F 62% 30.16 in 10.0 mi East 9.2 mph - N/A   Overcast
4:51 PM 59.0 °F 54.0 °F 83% 30.16 in 6.0 mi Calm Calm - 0.02 in Rain Light Rain
5:51 PM 59.0 °F 55.0 °F 87% 30.14 in 8.0 mi East 6.9 mph - 0.03 in Rain Light Rain
6:51 PM 57.9 °F 53.1 °F 84% 30.13 in 6.0 mi East 5.8 mph - 0.04 in Rain Light Rain
7:51 PM 57.0 °F 53.1 °F 87% 30.12 in 9.0 mi East 4.6 mph - 0.01 in   Overcast
8:51 PM 55.9 °F 53.1 °F 90% 30.12 in 5.0 mi Calm Calm - 0.01 in Rain Light Rain
9:51 PM 55.0 °F 53.1 °F 93% 30.14 in 4.0 mi Calm Calm - 0.09 in Rain Rain
10:51 PM 55.0 °F 53.1 °F 93% 30.13 in 5.0 mi SE 3.5 mph - 0.23 in Rain Rain
11:26 PM 55.4 °F 53.6 °F 94% 30.14 in 2.0 mi Calm Calm - 0.23 in Rain Rain
11:51 PM 55.0 °F 53.1 °F 93% 30.11 in 2.5 mi East 9.2 mph - 0.36 in Rain Rain